Regional Weather Roundup
Issued by NWS

Home | Current Version | Previous Version | Graphics & Text | Print | Product List | Glossary On
Versions: 1 2 3 4 5 6 7 8 9 10 11 12 13 14 15 16 17 18 19 20 21 22 23 24 25 26 27 28 29 30 31 32 33 34 35 36 37 38 39 40 41 42 43 44 45 46 47 48 49 50
860
ASUS43 KOAX 290210
RWRNE

WEATHER ROUNDUP FOR NEBRASKA
NATIONAL WEATHER SERVICE OMAHA NE
900 PM CDT SAT MAY 28 2016

NOTES: SATELLITE DATA IS BEING USED TO AUGMENT CLOUD COVER ABOVE
       12000 FEET.
       "FAIR" INDICATES FEW OR NO CLOUDS BELOW 12,000 FEET WITH NO
       SIGNIFICANT WEATHER AND/OR OBSTRUCTIONS TO VISIBILITY.

  * THESE STATIONS DO NOT REPORT WEATHER SUCH AS RAIN...SNOW OR FOG.

NEZ001>004-019>022-054>056-290300-
NEBRASKA PANHANDLE

CITY           SKY/WX    TMP DP  RH WIND       PRES   REMARKS
SCOTTSBLUFF    CLEAR     65  47  52 SE9       30.02R
ALLIANCE       CLOUDY    60  52  74 N5        30.03R
CHADRON        CLOUDY    56  51  84 SE5       30.01R
KIMBALL        CLOUDY    62  45  52 S6        30.06R
SIDNEY         CLOUDY    64  48  56 W7        30.04R
$$

NEZ057>060-069>072-079>082-290300-
SOUTHWEST NEBRASKA

CITY           SKY/WX    TMP DP  RH WIND       PRES   REMARKS
NORTH PLATTE   MOCLDY    65  54  67 W3        29.98R
IMPERIAL       PTCLDY    69  55  60 CALM      29.99R
LEXINGTON      CLEAR     67  56  66 CALM      29.97R
MCCOOK         CLEAR     72  49  44 S3        29.98R
OGALLALA       MOCLDY    64  53  66 N6        30.00R
$$

NEZ005>010-023>029-035>040-094-290300-
NORTH CENTRAL NEBRASKA

CITY           SKY/WX    TMP DP  RH WIND       PRES   REMARKS
VALENTINE      CLOUDY    68  50  52 NE7       29.94R
AINSWORTH      CLEAR     64  55  71 E5        29.96R
BROKEN BOW     CLEAR     66  55  67 CALM      29.96R
O`NEILL        CLOUDY    62  56  82 CALM      29.95S
ORD            CLEAR     67  55  65 CALM      29.94R
THEDFORD       CLOUDY    65  52  62 W5        29.98R
$$

NEZ041-046>049-061>064-073>077-083>087-290300-
SOUTH CENTRAL NEBRASKA

CITY           SKY/WX    TMP DP  RH WIND       PRES   REMARKS
GRAND ISLAND   CLEAR     66  58  75 NE7       29.95R
AURORA         PTCLDY    67  58  73 NE5       29.95R
HASTINGS       PTCLDY    71  55  56 CALM      29.95R
HEBRON         CLEAR     67  58  72 SW3       29.94R
HOLDREGE       CLEAR     68  53  58 CALM      29.97R
KEARNEY *      CLEAR     72  50  46 CALM      29.96R
YORK           CLEAR     68  57  68 CALM      29.94R
$$

NEZ011>018-030>034-042>045-290300-
NORTHEAST NEBRASKA

CITY           SKY/WX    TMP DP  RH WIND       PRES   REMARKS
NORFOLK        CLOUDY    61  55  81 NW6       29.93R
ALBION         CLEAR     62  56  80 CALM      29.95R
BLAIR          CLEAR     67  56  69 W7        29.91R
FREMONT        CLEAR     64  56  76 W9        29.92R
TEKAMAH        CLEAR     65  56  72 W12       29.90R
WAYNE          CLOUDY    61  57  88 NW7       29.92R
$$

NEZ050>053-065>068-078-088>093-290300-
SOUTHEAST NEBRASKA

CITY           SKY/WX    TMP DP  RH WIND       PRES   REMARKS
LINCOLN        CLEAR     72  56  57 W5        29.93R
OMAHA EPPLEY   PTCLDY    69  56  62 NW9       29.90R
BEATRICE       PTCLDY    70  57  64 CALM      29.94R
FALLS CITY     CLEAR     70  59  68 SW6       29.92R
NEBRASKA CITY  CLEAR     67  56  66 W7        29.93R
PLATTSMOUTH    CLEAR     70  59  68 W6        29.91R
$$

NEZ044-045-051>053-067-290300-
OMAHA AREA

CITY           SKY/WX    TMP DP  RH WIND       PRES   REMARKS
OMAHA EPPLEY   PTCLDY    69  56  62 NW9       29.90R
BLAIR          CLEAR     67  56  69 W7        29.91R
FREMONT        CLEAR     64  56  76 W9        29.92R
MILLARD        CLEAR     68  56  66 W8        29.91R
OFFUTT AFB     CLEAR     70  55  59 W12       29.90R
PLATTSMOUTH    CLEAR     70  59  68 W6        29.91R
WAHOO          FAIR      67  58  72 NW7       29.92R
$$




USA.gov is the U.S. government's official web portal to all federal, state and local government web resources and services.